******** Week 355 almanac for PRN-1 ******** ID: 1 Health: 0 Eccentricity: 0.001418113708 Time of Applicability(s): 61440 Orbital Inclination(rad): 0.9584108231 Rate of Right Ascen(r/s): -8.068907531e-09 SQRT(A) (m 1/2): 5153.582031 Right Ascen at Week(rad): -2.518431685 Argument of Perigee(rad): -0.004889189256 Mean Anom(rad): -0.5060889494 Af0(s): 0.000269061731 Af1(s/s): -3.637979e-12 week: 355 ******** Week 355 almanac for PRN-2 ******** ID: 2 Health: 0 Eccentricity: 0.01697492599 Time of Applicability(s): 61440 Orbital Inclination(rad): 0.963893606 Rate of Right Ascen(r/s): -8.023191341e-09 SQRT(A) (m 1/2): 5153.559082 Right Ascen at Week(rad): -2.681102932 Argument of Perigee(rad): -0.8416989288 Mean Anom(rad): 0.8889482336 Af0(s): 1.959553223e-05 Af1(s/s): 7.275958e-12 week: 355 ******** Week 355 almanac for PRN-3 ******** ID: 3 Health: 0 Eccentricity: 0.006371974945 Time of Applicability(s): 61440 Orbital Inclination(rad): 0.9926437615 Rate of Right Ascen(r/s): -7.600316584e-09 SQRT(A) (m 1/2): 5153.60498 Right Ascen at Week(rad): -1.532286144 Argument of Perigee(rad): 1.207682926 Mean Anom(rad): -2.730185449 Af0(s): 0.0004650170532 Af1(s/s): -1.091394e-11 week: 355 ******** Week 355 almanac for PRN-4 ******** ID: 4 Health: 0 Eccentricity: 0.003723621368 Time of Applicability(s): 61440 Orbital Inclination(rad): 0.9705088981 Rate of Right Ascen(r/s): -7.874613723e-09 SQRT(A) (m 1/2): 5153.692383 Right Ascen at Week(rad): -0.461041746 Argument of Perigee(rad): -2.904224857 Mean Anom(rad): 0.3094068462 Af0(s): 3.165432129e-05 Af1(s/s): 3.637979e-12 week: 355 ******** Week 355 almanac for PRN-5 ******** ID: 5 Health: 0 Eccentricity: 0.005371570587 Time of Applicability(s): 61440 Orbital Inclination(rad): 0.9792274217 Rate of Right Ascen(r/s): -7.726036106e-09 SQRT(A) (m 1/2): 5153.641113 Right Ascen at Week(rad): -1.591585962 Argument of Perigee(rad): 1.422921104 Mean Anom(rad): 0.9303376268 Af0(s): -0.0001801281616 Af1(s/s): 0 week: 355 ******** Week 355 almanac for PRN-6 ******** ID: 6 Health: 0 Eccentricity: 0.003872394562 Time of Applicability(s): 61440 Orbital Inclination(rad): 0.9873647105 Rate of Right Ascen(r/s): -7.783181343e-09 SQRT(A) (m 1/2): 5153.570312 Right Ascen at Week(rad): -2.568918228 Argument of Perigee(rad): -0.6153498769 Mean Anom(rad): -1.358366204 Af0(s): -0.0004785831909 Af1(s/s): -3.637979e-12 week: 355 ******** Week 355 almanac for PRN-7 ******** ID: 7 Health: 0 Eccentricity: 0.02024412155 Time of Applicability(s): 61440 Orbital Inclination(rad): 0.9510105642 Rate of Right Ascen(r/s): -7.874613723e-09 SQRT(A) (m 1/2): 5153.580078 Right Ascen at Week(rad): 0.5475165424 Argument of Perigee(rad): -2.002643378 Mean Anom(rad): -2.262971827 Af0(s): -0.0001107901245 Af1(s/s): -3.637979e-12 week: 355 ******** Week 355 almanac for PRN-8 ******** ID: 8 Health: 0 Eccentricity: 0.01145124435 Time of Applicability(s): 61440 Orbital Inclination(rad): 0.9441615797 Rate of Right Ascen(r/s): -8.251772291e-09 SQRT(A) (m 1/2): 5153.616699 Right Ascen at Week(rad): 2.595890599 Argument of Perigee(rad): 0.5071959921 Mean Anom(rad): 0.5830243027 Af0(s): 0.0003949253418 Af1(s/s): -3.637979e-12 week: 355 ******** Week 355 almanac for PRN-9 ******** ID: 9 Health: 0 Eccentricity: 0.003346443176 Time of Applicability(s): 61440 Orbital Inclination(rad): 0.9646186516 Rate of Right Ascen(r/s): -7.943188008e-09 SQRT(A) (m 1/2): 5153.517578 Right Ascen at Week(rad): -0.5250157856 Argument of Perigee(rad): 2.067066452 Mean Anom(rad): 1.173746597 Af0(s): 0.0006089688477 Af1(s/s): 0 week: 355 ******** Week 355 almanac for PRN-10 ******** ID: 10 Health: 0 Eccentricity: 0.01096487045 Time of Applicability(s): 61440 Orbital Inclination(rad): 0.992188361 Rate of Right Ascen(r/s): -7.577458489e-09 SQRT(A) (m 1/2): 5153.608887 Right Ascen at Week(rad): -1.534796465 Argument of Perigee(rad): -2.263398016 Mean Anom(rad): 2.579217546 Af0(s): -0.000462002356 Af1(s/s): -3.637979e-12 week: 355 ******** Week 355 almanac for PRN-11 ******** ID: 11 Health: 255 Eccentricity: 0.002239704132 Time of Applicability(s): 61440 Orbital Inclination(rad): 0.9642051958 Rate of Right Ascen(r/s): -8.011762293e-09 SQRT(A) (m 1/2): 5153.73291 Right Ascen at Week(rad): -2.549329638 Argument of Perigee(rad): -2.246369556 Mean Anom(rad): -0.4001188151 Af0(s): -0.0003647783691 Af1(s/s): 1.455192e-11 week: 355 ******** Week 355 almanac for PRN-12 ******** ID: 12 Health: 0 Eccentricity: 0.009079456329 Time of Applicability(s): 61440 Orbital Inclination(rad): 0.9588482473 Rate of Right Ascen(r/s): -7.817468486e-09 SQRT(A) (m 1/2): 5153.510742 Right Ascen at Week(rad): 1.665358229 Argument of Perigee(rad): 1.538797698 Mean Anom(rad): -2.877817992 Af0(s): -0.0004793368652 Af1(s/s): 0 week: 355 ******** Week 355 almanac for PRN-13 ******** ID: 13 Health: 0 Eccentricity: 0.009921550751 Time of Applicability(s): 61440 Orbital Inclination(rad): 0.9762253734 Rate of Right Ascen(r/s): -7.840326581e-09 SQRT(A) (m 1/2): 5153.618164 Right Ascen at Week(rad): -0.3504535655 Argument of Perigee(rad): 1.000505264 Mean Anom(rad): 0.3154618758 Af0(s): 0.0005441528564 Af1(s/s): 0 week: 355 ******** Week 355 almanac for PRN-14 ******** ID: 14 Health: 0 Eccentricity: 0.006551742554 Time of Applicability(s): 61440 Orbital Inclination(rad): 0.9421841826 Rate of Right Ascen(r/s): -7.988904198e-09 SQRT(A) (m 1/2): 5153.595215 Right Ascen at Week(rad): 1.611282035 Argument of Perigee(rad): -2.76259716 Mean Anom(rad): -3.075238998 Af0(s): 0.0005773145264 Af1(s/s): 3.637979e-12 week: 355 ******** Week 355 almanac for PRN-15 ******** ID: 15 Health: 0 Eccentricity: 0.0166015625 Time of Applicability(s): 61440 Orbital Inclination(rad): 0.9423819223 Rate of Right Ascen(r/s): -8.194627053e-09 SQRT(A) (m 1/2): 5153.620117 Right Ascen at Week(rad): -0.6681523718 Argument of Perigee(rad): 1.495044416 Mean Anom(rad): -0.4218746774 Af0(s): 0.0002999623779 Af1(s/s): 3.637979e-12 week: 355 ******** Week 355 almanac for PRN-16 ******** ID: 16 Health: 0 Eccentricity: 0.01504993439 Time of Applicability(s): 61440 Orbital Inclination(rad): 0.9580033594 Rate of Right Ascen(r/s): -7.828897533e-09 SQRT(A) (m 1/2): 5153.581055 Right Ascen at Week(rad): 1.682401669 Argument of Perigee(rad): 0.92435263 Mean Anom(rad): 1.587448782 Af0(s): 0.0001545032349 Af1(s/s): 7.275958e-12 week: 355 ******** Week 355 almanac for PRN-17 ******** ID: 17 Health: 0 Eccentricity: 0.01277446747 Time of Applicability(s): 61440 Orbital Inclination(rad): 0.9599328197 Rate of Right Ascen(r/s): -8.114623721e-09 SQRT(A) (m 1/2): 5153.519043 Right Ascen at Week(rad): 2.699995688 Argument of Perigee(rad): -1.132672165 Mean Anom(rad): 0.4814722279 Af0(s): -3.391534424e-05 Af1(s/s): -1.091394e-11 week: 355 ******** Week 355 almanac for PRN-18 ******** ID: 18 Health: 0 Eccentricity: 0.005703926086 Time of Applicability(s): 61440 Orbital Inclination(rad): 0.9723245082 Rate of Right Ascen(r/s): -7.931758961e-09 SQRT(A) (m 1/2): 5153.598145 Right Ascen at Week(rad): -2.573441524 Argument of Perigee(rad): -2.855893976 Mean Anom(rad): -1.504305975 Af0(s): -0.0003489512085 Af1(s/s): 1.091394e-11 week: 355 ******** Week 355 almanac for PRN-19 ******** ID: 19 Health: 0 Eccentricity: 0.01101160049 Time of Applicability(s): 61440 Orbital Inclination(rad): 0.9591298766 Rate of Right Ascen(r/s): -8.114623721e-09 SQRT(A) (m 1/2): 5153.658203 Right Ascen at Week(rad): 2.743896151 Argument of Perigee(rad): 2.918043792 Mean Anom(rad): 2.335579003 Af0(s): 0.0005433991821 Af1(s/s): 0 week: 355 ******** Week 355 almanac for PRN-21 ******** ID: 21 Health: 0 Eccentricity: 0.0005989074707 Time of Applicability(s): 61440 Orbital Inclination(rad): 0.9620720038 Rate of Right Ascen(r/s): -7.886042771e-09 SQRT(A) (m 1/2): 5153.697754 Right Ascen at Week(rad): -1.524950301 Argument of Perigee(rad): -0.4483264833 Mean Anom(rad): -3.070694355 Af0(s): 0.0003059917725 Af1(s/s): 7.275958e-12 week: 355 ******** Week 355 almanac for PRN-22 ******** ID: 22 Health: 0 Eccentricity: 0.0121884346 Time of Applicability(s): 61440 Orbital Inclination(rad): 0.9574401009 Rate of Right Ascen(r/s): -7.851755628e-09 SQRT(A) (m 1/2): 5153.57959 Right Ascen at Week(rad): 1.685745642 Argument of Perigee(rad): -0.9967291093 Mean Anom(rad): 1.133011842 Af0(s): -4.295943603e-05 Af1(s/s): 3.637979e-12 week: 355 ******** Week 355 almanac for PRN-23 ******** ID: 23 Health: 0 Eccentricity: 0.006000041962 Time of Applicability(s): 61440 Orbital Inclination(rad): 0.9871909392 Rate of Right Ascen(r/s): -7.646032773e-09 SQRT(A) (m 1/2): 5153.658203 Right Ascen at Week(rad): -1.566725811 Argument of Perigee(rad): -2.7452073 Mean Anom(rad): -2.60750556 Af0(s): 0.0004770758423 Af1(s/s): 3.637979e-12 week: 355 ******** Week 355 almanac for PRN-24 ******** ID: 24 Health: 0 Eccentricity: 0.01783657074 Time of Applicability(s): 61440 Orbital Inclination(rad): 0.9350535687 Rate of Right Ascen(r/s): -8.137481816e-09 SQRT(A) (m 1/2): 5153.591797 Right Ascen at Week(rad): 0.4396851082 Argument of Perigee(rad): 1.130847192 Mean Anom(rad): -1.282378728 Af0(s): -0.0001175731934 Af1(s/s): 1.455192e-11 week: 355 ******** Week 355 almanac for PRN-25 ******** ID: 25 Health: 0 Eccentricity: 0.01294517517 Time of Applicability(s): 61440 Orbital Inclination(rad): 0.9471756122 Rate of Right Ascen(r/s): -7.920329913e-09 SQRT(A) (m 1/2): 5153.687988 Right Ascen at Week(rad): 1.571905243 Argument of Perigee(rad): 1.15262515 Mean Anom(rad): -3.037340759 Af0(s): 0.0003542269287 Af1(s/s): -3.637979e-12 week: 355 ******** Week 355 almanac for PRN-26 ******** ID: 26 Health: 0 Eccentricity: 0.01097536087 Time of Applicability(s): 61440 Orbital Inclination(rad): 0.9279469234 Rate of Right Ascen(r/s): -8.114623721e-09 SQRT(A) (m 1/2): 5153.642578 Right Ascen at Week(rad): 1.498022122 Argument of Perigee(rad): 0.7042578454 Mean Anom(rad): 2.418025602 Af0(s): -0.000250219873 Af1(s/s): -7.275958e-12 week: 355 ******** Week 355 almanac for PRN-27 ******** ID: 27 Health: 0 Eccentricity: 0.0142159462 Time of Applicability(s): 61440 Orbital Inclination(rad): 0.9532815748 Rate of Right Ascen(r/s): -8.160339911e-09 SQRT(A) (m 1/2): 5153.611816 Right Ascen at Week(rad): 2.627593368 Argument of Perigee(rad): 0.8701595905 Mean Anom(rad): 0.6752320527 Af0(s): -2.034920654e-05 Af1(s/s): -7.275958e-12 week: 355 ******** Week 355 almanac for PRN-28 ******** ID: 28 Health: 0 Eccentricity: 0.0003986358643 Time of Applicability(s): 61440 Orbital Inclination(rad): 0.9619821221 Rate of Right Ascen(r/s): -7.817468486e-09 SQRT(A) (m 1/2): 5153.716797 Right Ascen at Week(rad): 0.5213699597 Argument of Perigee(rad): 0.2936161319 Mean Anom(rad): -2.192911299 Af0(s): -0.0004793368652 Af1(s/s): 7.275958e-12 week: 355 ******** Week 355 almanac for PRN-29 ******** ID: 29 Health: 0 Eccentricity: 0.00328540802 Time of Applicability(s): 61440 Orbital Inclination(rad): 0.9625813334 Rate of Right Ascen(r/s): -8.103194673e-09 SQRT(A) (m 1/2): 5153.728027 Right Ascen at Week(rad): 2.716608071 Argument of Perigee(rad): 2.746911682 Mean Anom(rad): 0.5517971577 Af0(s): -0.0003059917725 Af1(s/s): 7.275958e-12 week: 355 ******** Week 355 almanac for PRN-30 ******** ID: 30 Health: 0 Eccentricity: 0.007918357849 Time of Applicability(s): 61440 Orbital Inclination(rad): 0.9362639755 Rate of Right Ascen(r/s): -8.057478483e-09 SQRT(A) (m 1/2): 5153.718262 Right Ascen at Week(rad): 0.5390406993 Argument of Perigee(rad): -2.342708493 Mean Anom(rad): -2.381716396 Af0(s): 7.838212891e-05 Af1(s/s): 1.091394e-11 week: 355 ******** Week 355 almanac for PRN-31 ******** ID: 31 Health: 0 Eccentricity: 0.01085281372 Time of Applicability(s): 61440 Orbital Inclination(rad): 0.9547676187 Rate of Right Ascen(r/s): -7.886042771e-09 SQRT(A) (m 1/2): 5153.709473 Right Ascen at Week(rad): 0.5715771209 Argument of Perigee(rad): 0.9331363179 Mean Anom(rad): 2.946225446 Af0(s): -0.0001349077026 Af1(s/s): 3.637979e-12 week: 355 ******** Week 355 almanac for PRN-32 ******** ID: 32 Health: 0 Eccentricity: 0.009219169617 Time of Applicability(s): 61440 Orbital Inclination(rad): 0.9676985974 Rate of Right Ascen(r/s): -7.897471818e-09 SQRT(A) (m 1/2): 5153.662109 Right Ascen at Week(rad): -0.5081419969 Argument of Perigee(rad): -2.02048714 Mean Anom(rad): 1.279799123 Af0(s): -0.0001160658447 Af1(s/s): 1.818989e-11 week: 355